Date String (YYYY-MM-DD hh:mm:ss) UTC,Instrument flags,Ambient pressure (hPa),Sample flow (lpm),Bypass flow (lpm),Sample temperature (°C),Ambient temperature (°C),ASC tube jacket temperature (°C),LED temperature (°C),Box temperature (°C),Sample RH (%),Span deviation,Mass concentration (μg/m³),Mass concentration (μg/m³),Mass concentration (μg/m³)
DateTimeUTC,F1_M11,P_M11,Q1_M11,Q2_M11,T1_M11,T2_M11,T3_M11,T4_M11,T5_M11,U1_M11,ZSPAN_M11,X0_M11,X2_M11,X1_M11
2023-02-21 10:00:00,,0812.5,5.00,0.00,22.0,20.5,00.0,31.0,23.7,14.0,0000.0,0007.06,0002.91,0002.41
2023-02-21 10:01:00,,0812.5,5.00,0.00,22.0,20.3,00.0,31.0,23.7,14.0,0000.0,0006.87,0002.87,0002.37
2023-02-21 10:02:00,,0812.4,5.00,0.00,22.0,20.3,00.0,31.0,23.6,14.2,0000.0,0007.12,0002.98,0002.38
2023-02-21 10:03:00,,0812.4,4.99,0.00,21.9,20.2,00.0,31.0,23.6,14.3,0000.0,0006.64,0003.01,0002.38
2023-02-21 10:04:00,,0812.3,5.00,0.00,21.9,20.2,00.0,31.0,23.6,14.2,0000.0,0006.47,0002.96,0002.32
2023-02-21 10:05:00,,0812.2,5.01,0.00,21.9,20.2,00.0,31.0,23.6,14.2,0000.0,0006.10,0002.90,0002.25
2023-02-21 10:06:00,,0812.1,5.00,0.00,21.9,20.1,00.0,30.9,23.6,14.3,0000.0,0006.13,0002.91,0002.21
2023-02-21 10:07:00,,0812.3,5.00,0.00,21.9,20.1,00.0,30.9,23.5,14.2,0000.0,0006.09,0002.87,0002.14
2023-02-21 10:08:00,,0812.3,5.00,0.00,21.8,20.1,00.0,30.9,23.4,14.3,0000.0,0005.56,0002.83,0002.11
2023-02-21 10:09:00,,0812.3,5.00,0.00,21.8,20.0,00.0,30.9,23.4,14.7,0000.0,0005.44,0002.91,0002.16
2023-02-21 10:10:00,,0812.2,5.00,0.00,21.8,20.0,00.0,30.9,23.4,14.7,0000.0,0005.07,0002.98,0002.22
2023-02-21 10:11:00,,0812.2,5.00,0.00,21.8,20.0,00.0,30.9,23.4,14.7,0000.0,0005.29,0003.09,0002.30
2023-02-21 10:12:00,,0812.3,4.98,0.00,21.8,20.0,00.0,30.8,23.4,14.6,0000.0,0005.43,0003.15,0002.38
2023-02-21 10:13:00,,0812.3,5.00,0.00,21.8,20.0,00.0,30.8,23.4,14.5,0000.0,0005.31,0003.15,0002.41
2023-02-21 10:14:00,,0812.3,5.00,0.00,21.8,20.1,00.0,30.8,23.4,14.4,0000.0,0005.13,0003.12,0002.40
2023-02-21 10:15:00,,0812.2,5.00,0.00,21.8,20.7,00.0,30.7,23.6,14.0,0000.0,0004.94,0003.01,0002.34
2023-02-21 10:16:00,,0812.2,4.99,0.00,21.9,22.0,00.0,30.7,23.9,13.8,0000.0,0004.71,0002.87,0002.26
2023-02-21 10:17:00,,0812.1,4.99,0.00,22.0,22.7,00.0,30.7,24.1,13.7,0000.0,0004.42,0002.69,0002.14
2023-02-21 10:18:00,,0812.1,4.98,0.00,22.1,22.2,00.0,30.8,24.0,13.8,0000.0,0004.28,0002.57,0002.07
2023-02-21 10:19:00,,0812.0,4.99,0.00,22.0,21.6,00.0,30.8,23.8,13.9,0000.0,0004.83,0002.53,0001.99
2023-02-21 10:20:00,,0812.1,5.01,0.00,22.0,21.1,00.0,30.9,23.7,13.8,0000.0,0004.57,0002.37,0001.87
2023-02-21 10:21:00,,0812.0,5.00,0.00,22.0,20.8,00.0,30.9,23.6,13.5,0000.0,0004.31,0002.17,0001.69
2023-02-21 10:22:00,,0811.9,5.00,0.00,21.9,20.5,00.0,30.9,23.5,13.4,0000.0,0003.87,0001.92,0001.49
2023-02-21 10:23:00,,0811.8,5.00,0.00,21.9,20.3,00.0,30.9,23.5,13.4,0000.0,0003.59,0001.74,0001.34
2023-02-21 10:24:00,,0811.8,5.01,0.00,21.8,20.2,00.0,30.9,23.5,13.5,0000.0,0003.35,0001.55,0001.19
2023-02-21 10:25:00,,0812.0,4.98,0.00,21.8,20.1,00.0,30.9,23.5,13.5,0000.0,0003.30,0001.40,0001.04
2023-02-21 10:26:00,,0812.1,5.01,0.00,21.8,20.0,00.0,30.8,23.4,13.5,0000.0,0003.16,0001.31,0000.96
2023-02-21 10:27:00,,0812.2,5.01,0.00,21.8,19.9,00.0,30.8,23.4,13.5,0000.0,0003.08,0001.29,0000.91
2023-02-21 10:28:00,,0812.2,5.00,0.00,21.7,19.9,00.0,30.8,23.4,13.9,0000.0,0002.94,0001.30,0000.92
2023-02-21 10:29:00,,0812.1,5.01,0.00,21.7,19.9,00.0,30.8,23.4,14.2,0000.0,0003.05,0001.36,0000.97
2023-02-21 10:30:00,,0812.0,5.00,0.00,21.7,20.0,00.0,30.8,23.4,14.2,0000.0,0002.50,0001.33,0000.99
2023-02-21 10:31:00,,0812.0,5.00,0.00,21.7,20.0,00.0,30.8,23.4,14.0,0000.0,0002.27,0001.30,0000.99
2023-02-21 10:32:00,,0812.1,5.00,0.00,21.7,20.0,00.0,30.7,23.4,14.0,0000.0,0002.17,0001.32,0001.02
2023-02-21 10:33:00,,0812.1,5.00,0.00,21.7,20.0,00.0,30.7,23.4,14.0,0000.0,0002.33,0001.43,0001.07
2023-02-21 10:34:00,,0812.1,4.99,0.00,21.7,20.0,00.0,30.7,23.4,14.0,0000.0,0002.42,0001.49,0001.12
2023-02-21 10:35:00,,0812.0,5.01,0.00,21.7,20.4,00.0,30.7,23.5,14.0,0000.0,0002.49,0001.56,0001.16
2023-02-21 10:36:00,,0812.0,4.99,0.00,21.8,21.8,00.0,30.6,23.8,13.9,0000.0,0003.35,0001.59,0001.21
2023-02-21 10:37:00,,0812.1,4.97,0.00,22.0,22.9,00.0,30.6,24.1,13.7,0000.0,0003.60,0001.68,0001.23
2023-02-21 10:38:00,,0812.1,4.98,0.00,22.1,22.9,00.0,30.7,24.2,13.5,0000.0,0003.78,0001.74,0001.26
2023-02-21 10:39:00,,0812.0,5.00,0.00,22.1,22.4,00.0,30.8,24.1,13.4,0000.0,0003.83,0001.76,0001.27
2023-02-21 10:40:00,,0812.0,4.99,0.00,22.1,22.0,00.0,30.8,24.1,13.4,0000.0,0003.83,0001.71,0001.21
2023-02-21 10:41:00,,0811.8,4.98,0.00,22.2,21.6,00.0,30.9,24.0,13.4,0000.0,0003.80,0001.68,0001.14
2023-02-21 10:42:00,,0811.9,5.00,0.00,22.1,21.3,00.0,30.9,24.0,13.3,0000.0,0003.62,0001.62,0001.09
2023-02-21 10:43:00,,0812.0,5.01,0.00,22.1,21.1,00.0,30.9,23.9,13.3,0000.0,0003.55,0001.58,0001.04
2023-02-21 10:44:00,,0812.1,4.99,0.00,22.1,21.0,00.0,30.9,23.9,13.2,0000.0,0003.53,0001.52,0001.00
2023-02-21 10:45:00,,0812.0,5.00,0.00,22.1,20.9,00.0,31.0,23.9,13.3,0000.0,0003.49,0001.46,0000.95
2023-02-21 10:46:00,,0812.1,4.99,0.00,22.1,20.8,00.0,31.0,23.9,13.2,0000.0,0003.50,0001.43,0000.92
2023-02-21 10:47:00,,0812.0,5.01,0.00,22.1,20.7,00.0,31.0,23.9,13.2,0000.0,0002.89,0001.41,0000.87
2023-02-21 10:48:00,,0811.9,4.98,0.00,22.1,20.6,00.0,31.0,23.9,13.3,0000.0,0003.04,0001.34,0000.85
2023-02-21 10:49:00,,0811.8,5.00,0.00,22.1,20.6,00.0,31.0,23.9,13.3,0000.0,0002.91,0001.27,0000.83
2023-02-21 10:50:00,,0811.8,5.01,0.00,22.1,20.6,00.0,31.0,23.9,13.3,0000.0,0002.81,0001.23,0000.81
2023-02-21 10:51:00,,0811.8,5.01,0.00,22.1,20.5,00.0,31.0,23.9,13.3,0000.0,0002.70,0001.20,0000.81
2023-02-21 10:52:00,,0811.8,5.00,0.00,22.1,20.4,00.0,31.0,23.8,13.3,0000.0,0002.62,0001.17,0000.79
2023-02-21 10:53:00,,0811.9,5.01,0.00,22.1,20.4,00.0,31.0,23.8,13.3,0000.0,0002.73,0001.18,0000.79
2023-02-21 10:54:00,,0811.9,5.00,0.00,22.0,20.3,00.0,31.0,23.7,13.3,0000.0,0002.94,0001.18,0000.80
2023-02-21 10:55:00,,0811.9,5.01,0.00,22.0,20.3,00.0,31.0,23.7,13.3,0000.0,0003.86,0001.18,0000.81
2023-02-21 10:56:00,,0811.8,4.99,0.00,22.0,20.3,00.0,31.0,23.8,13.3,0000.0,0003.82,0001.17,0000.81
2023-02-21 10:57:00,,0811.8,5.00,0.00,22.0,20.3,00.0,31.0,23.7,13.2,0000.0,0003.90,0001.18,0000.79
2023-02-21 10:58:00,,0811.5,5.01,0.00,22.0,20.3,00.0,31.0,23.7,13.3,0000.0,0003.81,0001.14,0000.79
2023-02-21 10:59:00,,0811.4,5.01,0.00,22.0,20.2,00.0,30.9,23.7,13.1,0000.0,0003.07,0001.11,0000.78
